User: anonymous   Login
Location: Apeadero de Los Molinos-Guadarrama
(40.7091°N, 4.0689°W)
Time: 09:14:18
(UTC+00:00)
Language:

Cosmos 158 Rocket - Orbit

View from above orbital plane
View from above orbital plane
View from above satellite
View from above satellite

Ground track
Ground track

The orbit data is extracted from the following two-line orbital elements,

1  2802U 67045B   21216.76011009  .00000046  00000-0  21340-4 0  9994
2  2802  74.0104 236.1579 0067821 287.2912  72.0831 14.43818439846822
Epoch (UTC): 04 August 2021 18:14:33
Eccentricity: 0.0067821
inclination: 74.0104°
perigee height: 697 km
apogee height: 794 km
right ascension of ascending node: 236.1579°
argument of perigee: 287.2912°
revolutions per day: 14.43818439
mean anomaly at epoch: 72.0831°
orbit number at epoch: 84682

The dashed part of the orbit path shows where the satellite is in the earth's shadow,  

DLR